BCS138 EDDP-LIMC

Flight info

Callsign BCS138
Flight time N/A
Altitude 37000
Route NEVKO2E NEVKO Q243 BAMKI Z94 KOMIB DCT TEDGO DCT SONOM DCT GERSA DCT SOSON DCT DEGAD Z424 RIXUV
Aircraft A333/H-SDE3GHIJ2J3J5M1RVWXY/LB2D1

Departure

Time 2026-05-05 19:44
Airport Leipzig/Halle Airport (EDDP)

Arrival

Time N/A
Airport Milan Malpensa International Airport (LIMC)
Time Latitude Longitude Altitude Speed Heading
2026-05-05 19:22 51.40834 12.24335 469 ft 0 kts 85°
2026-05-05 19:33 51.40832 12.24310 466 ft 2 kts 85°
2026-05-05 19:33 51.40831 12.24283 466 ft 4 kts 85°
2026-05-05 19:33 51.40827 12.24240 464 ft 4 kts 68°
2026-05-05 19:34 51.40811 12.24203 462 ft 4 kts 27°
2026-05-05 19:34 51.40782 12.24196 463 ft 1 kts 354°
2026-05-05 19:36 51.40820 12.24193 465 ft 11 kts 356°
2026-05-05 19:36 51.40930 12.24182 468 ft 20 kts 356°
2026-05-05 19:37 51.41062 12.24070 472 ft 26 kts 289°
2026-05-05 19:37 51.41056 12.23748 482 ft 32 kts 265°
2026-05-05 19:37 51.41039 12.23369 480 ft 37 kts 265°
2026-05-05 19:37 51.41019 12.22943 477 ft 41 kts 265°
2026-05-05 19:38 51.41000 12.22558 467 ft 34 kts 265°
2026-05-05 19:38 51.41012 12.22340 468 ft 14 kts 319°
2026-05-05 19:38 51.41069 12.22243 467 ft 13 kts 284°
2026-05-05 19:38 51.41064 12.22045 472 ft 24 kts 265°
2026-05-05 19:39 51.41049 12.21718 472 ft 34 kts 265°
2026-05-05 19:39 51.41028 12.21276 462 ft 44 kts 265°
2026-05-05 19:39 51.41003 12.20760 432 ft 48 kts 265°
2026-05-05 19:39 51.41028 12.20493 427 ft 0 kts 336°
2026-05-05 19:42 51.41029 12.20493 426 ft 1 kts 336°
2026-05-05 19:42 51.41065 12.20489 427 ft 9 kts
2026-05-05 19:43 51.41141 12.20532 436 ft 14 kts 38°
2026-05-05 19:43 51.41172 12.20717 433 ft 26 kts 87°
2026-05-05 19:43 51.41200 12.21330 462 ft 84 kts 85°
2026-05-05 19:43 51.41257 12.22547 472 ft 134 kts 85°
2026-05-05 19:44 51.41335 12.24205 722 ft 155 kts 85°
2026-05-05 19:44 51.41407 12.25883 1212 ft 160 kts 86°
2026-05-05 19:44 51.41456 12.27670 1793 ft 160 kts 88°
2026-05-05 19:44 51.41492 12.29501 2211 ft 172 kts 86°
2026-05-05 19:45 51.41582 12.31538 2467 ft 195 kts 85°
2026-05-05 19:45 51.41699 12.33848 2680 ft 222 kts 85°
2026-05-05 19:45 51.41832 12.36463 2981 ft 247 kts 85°
2026-05-05 19:45 51.41973 12.39285 3566 ft 259 kts 85°
2026-05-05 19:46 51.42117 12.42205 4335 ft 264 kts 85°
2026-05-05 19:46 51.42261 12.45158 5182 ft 268 kts 85°
2026-05-05 19:46 51.42386 12.48151 6016 ft 271 kts 89°
2026-05-05 19:46 51.42098 12.51141 6864 ft 275 kts 111°
2026-05-05 19:47 51.41014 12.53645 7714 ft 278 kts 140°
2026-05-05 19:47 51.39299 12.55044 8555 ft 280 kts 167°
2026-05-05 19:47 51.37360 12.55456 9410 ft 283 kts 176°
2026-05-05 19:47 51.35400 12.55643 10205 ft 288 kts 177°
2026-05-05 19:48 51.33337 12.55822 10628 ft 307 kts 177°
2026-05-05 19:48 51.31133 12.56032 10950 ft 327 kts 176°
2026-05-05 19:48 51.28793 12.56273 11247 ft 347 kts 176°
2026-05-05 19:48 51.26330 12.56537 11655 ft 361 kts 176°
2026-05-05 19:49 51.23800 12.56803 12248 ft 367 kts 178°
2026-05-05 19:49 51.22064 12.56815 12694 ft 370 kts 183°
2026-05-05 19:49 51.18698 12.55830 13554 ft 375 kts 199°
2026-05-05 19:49 51.16323 12.54096 14190 ft 378 kts 211°
2026-05-05 19:50 51.14217 12.51556 14812 ft 381 kts 224°
2026-05-05 19:50 51.12513 12.48370 15423 ft 384 kts 236°
2026-05-05 19:50 51.11247 12.44567 16018 ft 387 kts 248°
2026-05-05 19:50 51.10322 12.40566 16587 ft 391 kts 251°
2026-05-05 19:51 51.09446 12.36460 17162 ft 394 kts 251°
2026-05-05 19:51 51.08560 12.32309 17701 ft 397 kts 251°
2026-05-05 19:51 51.07658 12.28134 18237 ft 401 kts 251°
2026-05-05 19:51 51.06742 12.23932 18758 ft 404 kts 251°
2026-05-05 19:52 51.05815 12.19705 19267 ft 407 kts 251°
2026-05-05 19:52 51.04874 12.15431 19749 ft 410 kts 251°
2026-05-05 19:52 51.03925 12.11138 20252 ft 413 kts 251°
2026-05-05 19:52 51.02967 12.06819 20716 ft 416 kts 251°
2026-05-05 19:53 51.02002 12.02473 21161 ft 419 kts 250°
2026-05-05 19:53 51.01024 11.98084 21619 ft 422 kts 250°
2026-05-05 19:53 51.00043 11.93687 22043 ft 425 kts 250°
2026-05-05 19:53 50.99048 11.89240 22455 ft 428 kts 250°
2026-05-05 19:54 50.98048 11.84776 22869 ft 431 kts 250°
2026-05-05 19:54 50.97040 11.80291 23260 ft 433 kts 250°
2026-05-05 19:54 50.96024 11.75775 23673 ft 436 kts 250°
2026-05-05 19:54 50.94997 11.71224 24059 ft 439 kts 250°
2026-05-05 19:55 50.93963 11.66652 24454 ft 441 kts 250°
2026-05-05 19:55 50.92923 11.62062 24816 ft 444 kts 250°
2026-05-05 19:55 50.91873 11.57439 25184 ft 446 kts 250°
2026-05-05 19:55 50.90819 11.52809 25549 ft 448 kts 250°
2026-05-05 19:56 50.89757 11.48151 25870 ft 451 kts 250°
2026-05-05 19:56 50.88686 11.43466 26207 ft 454 kts 250°
2026-05-05 19:56 50.87606 11.38755 26545 ft 456 kts 250°
2026-05-05 19:56 50.86494 11.34105 26846 ft 458 kts 247°
2026-05-05 19:57 50.85051 11.29593 27160 ft 461 kts 238°
2026-05-05 19:57 50.83857 11.26733 27367 ft 462 kts 235°
2026-05-05 19:57 50.81129 11.21557 27767 ft 465 kts 225°
2026-05-05 19:57 50.78780 11.17984 28069 ft 468 kts 223°
2026-05-05 19:58 50.76353 11.14559 28359 ft 470 kts 221°
2026-05-05 19:58 50.73873 11.11214 28650 ft 472 kts 220°
2026-05-05 19:58 50.71342 11.07873 28916 ft 474 kts 220°
2026-05-05 19:58 50.68809 11.04551 29181 ft 476 kts 220°
2026-05-05 19:59 50.66248 11.01191 29453 ft 478 kts 220°
2026-05-05 19:59 50.63750 10.97904 29716 ft 480 kts 220°
2026-05-05 19:59 50.61175 10.94508 29952 ft 483 kts 220°
2026-05-05 19:59 50.58599 10.91103 30180 ft 485 kts 220°
2026-05-05 20:00 50.56005 10.87676 30443 ft 486 kts 220°
2026-05-05 20:00 50.53423 10.84265 30827 ft 485 kts 220°
2026-05-05 20:00 50.50841 10.80860 31199 ft 483 kts 220°
2026-05-05 20:00 50.48266 10.77470 31586 ft 482 kts 220°
2026-05-05 20:01 50.45708 10.74106 31919 ft 481 kts 220°
2026-05-05 20:01 50.43135 10.70729 32256 ft 480 kts 220°
2026-05-05 20:01 50.40583 10.67384 32586 ft 479 kts 220°
2026-05-05 20:01 50.38025 10.64037 32911 ft 478 kts 220°
2026-05-05 20:02 50.35476 10.60706 33222 ft 477 kts 220°
2026-05-05 20:02 50.32955 10.57418 33537 ft 476 kts 220°
2026-05-05 20:02 50.30408 10.54099 33818 ft 476 kts 220°
2026-05-05 20:02 50.27865 10.50791 34099 ft 475 kts 220°
2026-05-05 20:03 50.25335 10.47504 34374 ft 475 kts 220°
2026-05-05 20:03 50.22794 10.44207 34632 ft 474 kts 220°
2026-05-05 20:03 50.20247 10.40908 34884 ft 474 kts 220°
2026-05-05 20:03 50.17714 10.37632 35151 ft 474 kts 220°
2026-05-05 20:04 50.15177 10.34355 35416 ft 473 kts 220°